Regional Weather Roundup
Issued by NWS

Home | Current Version | Previous Version | Graphics & Text | Print | Product List | Glossary On
Versions: 1 2 3 4 5 6 7 8 9 10 11 12 13 14 15 16 17 18 19 20 21 22 23 24 25 26 27 28 29 30 31 32 33 34 35 36 37 38 39 40 41 42 43 44 45 46 47 48 49 50
000
ASUS44 KMEG 181710
RWRTN
TENNESSEE HOURLY STATE WEATHER ROUNDUP
NATIONAL WEATHER SERVICE MEMPHIS TN
1100 AM CST WED JAN 18 2017

TNZ002-004-019-021-049-052-054-088>092-181800-
WEST TENNESSEE

CITY           SKY/WX    TMP DP  RH WIND       PRES   REMARKS
MEMPHIS INTL   CLOUDY    49  41  74 E3        30.22F
NWS MEMPHIS      N/A     48 N/A N/A MISG        N/A
JACKSON        CLOUDY    48  43  82 VRB5      30.22F
DYERSBURG      CLOUDY    45  39  81 E7        30.22F
UNION CITY     CLOUDY    45  45 100 CALM      30.23F
PARIS          CLOUDY    43  37  81 CALM      30.23F
HUNTINGDON     CLOUDY    46  41  81 VRB3      30.23F
$$

TNZ008-025-027-028-033-062-065-066-181800-
NORTH MIDDLE TENNESSEE

CITY           SKY/WX    TMP DP  RH WIND       PRES   REMARKS
NASHVILLE      CLOUDY    47  39  74 E6        30.24F
PORTLAND       CLOUDY    46  39  76 CALM      30.24F
CLARKSVILLE    CLOUDY    46  38  73 CALM      30.25F
SMYRNA         CLOUDY    46  41  82 E3        30.26F
GALLATIN       CLOUDY    46  39  76 NE5       30.28S
CROSSVILLE     CLOUDY    48  40  73 CALM      30.20F
$$

TNZ061-075-076-078-094-096-097-181800-
SOUTH MIDDLE TENNESSEE

CITY           SKY/WX    TMP DP  RH WIND       PRES   REMARKS
FAYETTEVILLE   PTSUNNY   50  45  81 CALM      30.21F
TULLAHOMA      CLOUDY    50  43  76 CALM      30.22S
WINCHESTER     CLOUDY    52  45  76 VRB3      30.22S
MCMINNVILLE    CLOUDY    46  45  93 NE7       30.22F
COLUMBIA       CLOUDY    48  48 100 VRB3      30.21F
SHELBYVILLE    CLOUDY    48  45  87 NE3       30.23F
$$

TNZ017-018-042-046-047-181800-
NORTHEAST TENNESSEE

CITY           SKY/WX    TMP DP  RH WIND       PRES   REMARKS
TRI CITIES     MOSUNNY   55  40  56 SW9       30.15F
ELIZABETHTON   MOSUNNY   55  41  58 W10G17    30.13F
$$

TNZ012-013-036-069-073-074-181800-
CENTRAL EAST TENNESSEE

CITY           SKY/WX    TMP DP  RH WIND       PRES   REMARKS
KNOXVILLE      PTSUNNY   55  44  66 CALM      30.18F
OAK RIDGE      CLOUDY    57  43  59 VRB3      30.20F
GATLINBURG     PTSUNNY   54  45  71 W6        30.18F
MORRISTOWN     MOSUNNY   54  43  66 VRB7      30.17F
JACKSBORO      MOSUNNY   52  39  62 CALM      30.22F
$$

TNZ083-085-099-181800-
SOUTHEAST TENNESSEE

CITY           SKY/WX    TMP DP  RH WIND       PRES   REMARKS
CHATTANOOGA    PTSUNNY   62  45  53 N7        30.18F
$$

SKY/WX REPORTED AS FAIR MEANS FEW OR NO CLOUDS BELOW
12 THOUSAND FEET.





USA.gov is the U.S. government's official web portal to all federal, state and local government web resources and services.